FW2710 Weather Reports


Display with metric or nautical units.
time (UTC)temp
F
wind
direction
speed
MPH
gust
MPH
rain 1hr
in
rain 24hr
in
rain mn
in
humidity
%
barometer
mb
20260509020041 54 0 0.0 2.0 0.00 0.13 0.05 86 1008.5
20260509015526 54 0 0.0 2.0 0.00 0.13 0.05 86 1008.4
20260509015026 54 0 0.0 2.0 0.00 0.13 0.05 86 1008.5
20260509014536 55 0 0.0 0.0 0.00 0.13 0.05 85 1008.3
20260509014025 55 0 0.0 0.0 0.00 0.13 0.05 85 1008.3
20260509013525 55 0 0.0 0.0 0.00 0.13 0.05 84 1008.3
20260509013050 55 0 0.0 0.0 0.00 0.13 0.05 84 1008.3
20260509012522 55 0 0.0 0.0 0.00 0.13 0.05 84 1008.3
20260509012025 55 0 0.0 0.0 0.00 0.13 0.05 83 1008.3
20260509011555 55 0 0.0 0.0 0.00 0.13 0.05 83 1008.3
20260509011027 55 0 0.0 0.0 0.00 0.13 0.05 83 1008.2
20260509010526 56 0 0.0 0.0 0.00 0.13 0.05 82 1008.1
20260509010045 56 0 0.0 0.0 0.00 0.13 0.05 82 1008.0
20260509005527 56 0 0.0 0.0 0.00 0.13 0.05 82 1008.0
20260509005025 56 0 0.0 0.0 0.00 0.13 0.05 82 1008.1
20260509004546 56 0 0.0 0.0 0.00 0.13 0.05 82 1008.0
20260509004026 56 0 0.0 0.0 0.00 0.13 0.05 82 1008.0
20260509003526 57 0 0.0 0.0 0.00 0.13 0.05 82 1007.8
20260509003039 57 0 0.0 3.0 0.00 0.13 0.05 82 1007.8
20260509002522 57 0 0.0 3.0 0.00 0.13 0.05 81 1008.0
20260509002025 57 0 0.0 6.0 0.00 0.13 0.05 81 1007.9
20260509001535 57 0 0.0 8.0 0.00 0.13 0.05 81 1007.9
20260509001026 58 0 1.0 8.0 0.00 0.13 0.05 80 1008.0
20260509000522 58 0 0.0 6.0 0.00 0.13 0.05 80 1008.2
20260509000046 58 0 0.0 6.0 0.00 0.13 0.05 79 1008.3
20260508235525 58 0 2.0 6.0 0.00 0.13 0.05 79 1008.4
20260508235025 58 0 0.0 6.0 0.00 0.13 0.05 79 1008.3
20260508234540 58 287 2.0 6.0 0.00 0.13 0.05 79 1008.3
20260508234022 59 287 2.0 7.0 0.00 0.13 0.05 79 1008.2
20260508233526 59 0 1.0 8.0 0.00 0.13 0.05 78 1008.3
20260508233040 59 0 2.0 8.0 0.00 0.13 0.05 78 1008.3
20260508232525 59 287 2.0 10.0 0.00 0.13 0.05 76 1008.5
20260508232025 60 287 2.0 10.0 0.00 0.13 0.05 75 1008.4
20260508231537 60 287 3.0 8.0 0.00 0.13 0.05 74 1008.4
20260508231025 61 287 3.0 8.0 0.00 0.13 0.05 74 1008.4
20260508230525 61 0 1.0 10.0 0.00 0.13 0.05 74 1008.3
20260508230037 61 287 3.0 10.0 0.00 0.13 0.05 74 1008.4
20260508225523 61 0 3.0 7.0 0.00 0.13 0.05 74 1008.3
20260508225029 61 0 0.0 3.0 0.00 0.13 0.05 74 1008.5
20260508224537 61 0 0.0 0.0 0.00 0.13 0.05 75 1008.5
20260508224027 61 0 0.0 6.0 0.00 0.13 0.05 75 1008.5
20260508223526 61 0 0.0 6.0 0.00 0.13 0.05 75 1008.5
20260508223046 61 0 0.0 0.0 0.00 0.13 0.05 76 1008.5
20260508222528 61 0 0.0 0.0 0.00 0.13 0.05 74 1008.6
20260508222026 61 0 0.0 7.0 0.00 0.13 0.05 75 1008.6
20260508221541 61 0 0.0 7.0 0.00 0.13 0.05 75 1008.6
20260508221029 61 0 0.0 4.0 0.00 0.13 0.05 75 1008.7
20260508220526 60 0 0.0 0.0 0.00 0.13 0.05 75 1008.7
20260508220036 60 0 0.0 2.0 0.00 0.13 0.05 75 1008.8
20260508215522 60 0 0.0 4.0 0.00 0.14 0.05 73 1008.8
20260508215026 60 0 0.0 6.0 0.00 0.14 0.05 73 1008.9
20260508214553 60 0 0.0 6.0 0.00 0.14 0.05 71 1008.8
20260508214025 60 0 0.0 6.0 0.00 0.14 0.05 71 1008.8
20260508213525 60 0 0.0 4.0 0.00 0.14 0.05 72 1008.8
20260508213044 60 0 0.0 4.0 0.00 0.14 0.05 71 1008.8
20260508212525 60 287 0.0 8.0 0.00 0.14 0.05 71 1008.8
20260508212026 60 0 0.0 8.0 0.00 0.14 0.05 72 1008.7
20260508211543 60 0 2.0 9.0 0.00 0.14 0.05 69 1008.7
20260508211022 60 0 0.0 9.0 0.00 0.14 0.05 71 1008.8
20260508210526 60 0 1.0 9.0 0.00 0.14 0.05 70 1008.8
20260508210040 60 0 1.0 8.0 0.00 0.14 0.05 72 1008.7
20260508205525 60 287 1.0 6.0 0.00 0.14 0.05 72 1008.7
20260508205029 60 0 1.0 8.0 0.00 0.14 0.05 72 1008.7
20260508204543 60 287 0.0 8.0 0.00 0.14 0.05 71 1008.7
20260508204035 60 287 1.0 7.0 0.00 0.14 0.05 74 1008.7
20260508203525 60 0 0.0 4.0 0.00 0.14 0.05 74 1008.7
20260508203035 60 0 0.0 6.0 0.00 0.14 0.05 74 1008.8
20260508202528 60 0 0.0 6.0 0.00 0.14 0.05 75 1008.8
20260508202022 60 0 0.0 4.0 0.00 0.14 0.05 72 1008.7
20260508201538 60 0 0.0 4.0 0.00 0.14 0.05 72 1008.8
20260508201026 60 0 0.0 4.0 0.00 0.14 0.05 71 1008.7
20260508200526 60 0 0.0 3.0 0.00 0.14 0.05 73 1008.9
20260508200043 60 0 0.0 6.0 0.00 0.14 0.05 74 1009.0
20260508195525 60 0 0.0 6.0 0.00 0.20 0.05 75 1009.1
20260508195026 60 0 0.0 6.0 0.00 0.20 0.05 77 1009.2
20260508194539 60 0 0.0 0.0 0.00 0.20 0.05 78 1009.0
20260508194025 60 0 0.0 3.0 0.00 0.20 0.05 79 1009.0
20260508193525 59 0 0.0 3.0 0.00 0.20 0.05 77 1009.2
20260508193052 59 0 0.0 3.0 0.00 0.20 0.05 78 1009.3
20260508192526 59 0 0.0 4.0 0.00 0.20 0.05 79 1009.4
20260508192026 59 0 0.0 4.0 0.00 0.20 0.05 78 1009.5
20260508191542 59 0 0.0 6.0 0.00 0.20 0.05 78 1009.6
20260508191025 59 0 0.0 7.0 0.00 0.20 0.05 76 1009.6
20260508190523 60 287 0.0 7.0 0.00 0.20 0.05 76 1009.7
20260508190036 60 287 1.0 8.0 0.00 0.20 0.05 75 1009.8
20260508185522 60 287 0.0 8.0 0.00 0.20 0.05 76 1009.9
20260508185026 60 287 0.0 6.0 0.00 0.20 0.05 76 1009.9
20260508184557 60 0 0.0 7.0 0.00 0.20 0.05 77 1009.9
20260508184024 59 0 1.0 10.0 0.00 0.20 0.05 78 1010.0
20260508183529 59 0 1.0 10.0 0.00 0.20 0.05 80 1009.9
20260508183037 59 0 0.0 8.0 0.00 0.20 0.05 80 1010.0
20260508182525 59 0 0.0 8.0 0.00 0.20 0.05 81 1010.1
20260508182022 58 0 0.0 7.0 0.00 0.20 0.05 81 1010.1
20260508181539 58 287 0.0 7.0 0.01 0.20 0.05 82 1010.0
20260508181026 58 0 0.0 7.0 0.02 0.20 0.05 83 1010.0
20260508180526 58 287 0.0 7.0 0.03 0.20 0.05 84 1009.9
20260508180041 57 0 0.0 8.0 0.03 0.20 0.05 85 1009.9
20260508175525 57 287 1.0 8.0 0.04 0.20 0.05 86 1010.0
20260508175027 56 0 0.0 7.0 0.04 0.20 0.05 86 1010.2
20260508174539 56 287 0.0 6.0 0.04 0.20 0.05 86 1010.3
20260508174023 55 287 0.0 4.0 0.04 0.20 0.05 86 1010.4
20260508173526 55 0 0.0 7.0 0.04 0.20 0.05 87 1010.3
20260508173043 55 0 0.0 7.0 0.04 0.20 0.05 87 1010.4
20260508172525 55 0 0.0 7.0 0.05 0.20 0.05 86 1010.5
20260508172027 55 0 0.0 4.0 0.05 0.20 0.05 86 1010.2
20260508171544 55 0 0.0 4.0 0.04 0.19 0.04 85 1011.0
20260508171022 55 287 0.0 4.0 0.03 0.18 0.03 84 1011.1
20260508170525 55 287 0.0 2.0 0.02 0.17 0.02 84 1011.0
20260508170041 55 0 0.0 1.0 0.02 0.17 0.02 83 1010.9
20260508165522 56 0 0.0 0.0 0.01 0.16 0.01 83 1011.0
20260508165025 56 0 0.0 0.0 0.01 0.16 0.01 82 1011.0
20260508164536 56 0 0.0 0.0 0.01 0.16 0.01 81 1010.9
20260508164029 56 0 0.0 0.0 0.01 0.16 0.01 81 1010.8
20260508163525 56 0 0.0 0.0 0.01 0.16 0.01 81 1010.8
20260508163046 56 0 0.0 0.0 0.01 0.16 0.01 80 1011.0
20260508162525 56 0 0.0 2.0 0.00 0.15 0.00 79 1010.9
20260508162026 57 0 0.0 6.0 0.00 0.15 0.00 78 1011.1
20260508161543 57 0 0.0 6.0 0.00 0.15 0.00 76 1011.0
20260508161026 57 0 0.0 7.0 0.00 0.15 0.00 73 1011.1
20260508160524 58 0 1.0 7.0 0.00 0.15 0.00 72 1011.2
20260508160059 58 287 0.0 7.0 0.00 0.15 0.00 72 1011.3
20260508155527 58 0 1.0 8.0 0.00 0.15 0.00 72 1011.3
20260508155027 58 287 1.0 9.0 0.00 0.15 0.00 71 1011.4
20260508154539 59 287 0.0 9.0 0.00 0.15 0.00 72 1011.3
20260508154030 59 287 0.0 9.0 0.00 0.15 0.00 71 1011.4
20260508153526 59 0 1.0 11.0 0.00 0.15 0.00 71 1011.5
20260508153044 60 0 2.0 11.0 0.00 0.15 0.00 69 1011.4
20260508152527 60 0 3.0 11.0 0.00 0.15 0.00 70 1011.6
20260508152025 60 287 1.0 10.0 0.00 0.15 0.00 72 1011.6
20260508151538 59 287 0.0 10.0 0.00 0.15 0.00 71 1011.4
20260508151026 60 287 1.0 12.0 0.00 0.15 0.00 69 1011.4
20260508150525 60 0 2.0 12.0 0.00 0.15 0.00 69 1011.0
20260508150043 60 287 1.0 8.0 0.00 0.15 0.00 70 1011.1
20260508145525 60 0 1.0 8.0 0.00 0.15 0.00 71 1011.1
20260508145029 59 0 1.0 8.0 0.00 0.15 0.00 70 1011.2
20260508144543 59 0 1.0 8.0 0.00 0.15 0.00 69 1011.2
20260508144025 59 0 2.0 8.0 0.00 0.15 0.00 71 1011.3
20260508143526 59 287 1.0 8.0 0.00 0.15 0.00 71 1011.3
20260508143053 59 287 1.0 9.0 0.00 0.15 0.00 72 1011.3
20260508142525 58 287 3.0 9.0 0.00 0.15 0.00 73 1011.3
20260508142026 58 287 4.0 8.0 0.00 0.15 0.00 73 1011.3
20260508141548 58 0 2.0 8.0 0.00 0.15 0.00 74 1011.4
20260508141026 58 0 3.0 8.0 0.00 0.15 0.00 72 1011.4
20260508140525 57 287 1.0 7.0 0.00 0.15 0.00 74 1011.3
20260508140041 57 287 1.0 7.0 0.00 0.15 0.00 75 1011.3
20260508135526 56 287 1.0 8.0 0.00 0.15 0.00 75 1011.4
20260508135026 56 287 0.0 8.0 0.00 0.15 0.00 75 1011.4
20260508134535 56 287 0.0 6.0 0.00 0.15 0.00 75 1011.5
20260508134026 55 0 1.0 6.0 0.00 0.15 0.00 75 1011.4
20260508133525 55 287 1.0 6.0 0.00 0.15 0.00 75 1011.4
20260508133052 55 0 0.0 7.0 0.00 0.15 0.00 77 1011.4
20260508132525 55 0 0.0 7.0 0.00 0.15 0.00 77 1011.4
20260508132027 54 0 0.0 6.0 0.00 0.15 0.00 77 1011.5
20260508131540 54 287 0.0 6.0 0.00 0.15 0.00 79 1011.4
20260508131024 54 0 0.0 2.0 0.00 0.15 0.00 79 1011.4
20260508130526 54 0 0.0 2.0 0.00 0.15 0.00 81 1011.6
20260508130057 53 0 0.0 2.0 0.00 0.15 0.00 81 1011.6
20260508125525 53 287 0.0 4.0 0.00 0.15 0.00 82 1011.5
20260508125026 52 0 0.0 4.0 0.00 0.15 0.00 83 1011.6
20260508124538 52 287 0.0 2.0 0.00 0.15 0.00 84 1011.6
20260508124025 51 0 0.0 2.0 0.00 0.15 0.00 84 1011.7
20260508123525 51 0 0.0 0.0 0.00 0.15 0.00 86 1011.7
20260508123043 50 0 0.0 0.0 0.00 0.15 0.00 86 1011.7
20260508122523 50 0 0.0 0.0 0.00 0.15 0.00 87 1011.8
20260508122025 49 0 0.0 0.0 0.00 0.15 0.00 88 1011.9
20260508121559 49 0 0.0 0.0 0.00 0.15 0.00 89 1011.8
20260508121025 48 0 0.0 0.0 0.00 0.15 0.00 89 1011.9
20260508120526 48 0 0.0 0.0 0.00 0.15 0.00 90 1011.9
20260508120039 48 0 0.0 0.0 0.00 0.15 0.00 90 1011.9
20260508115525 47 0 0.0 0.0 0.00 0.15 0.00 90 1011.7
20260508115024 47 0 0.0 0.0 0.00 0.15 0.00 90 1011.9
20260508114539 47 0 0.0 0.0 0.00 0.15 0.00 90 1011.8
20260508114024 47 0 0.0 0.0 0.00 0.15 0.00 90 1011.8
20260508113528 47 0 0.0 0.0 0.00 0.15 0.00 90 1011.7
20260508113047 47 0 0.0 0.0 0.00 0.15 0.00 90 1011.4
20260508112526 46 0 0.0 0.0 0.00 0.15 0.00 90 1011.4
20260508112025 46 0 0.0 0.0 0.00 0.15 0.00 90 1011.2
20260508111535 46 0 0.0 0.0 0.00 0.15 0.00 90 1011.3
20260508111024 46 0 0.0 0.0 0.00 0.15 0.00 90 1011.4
20260508110525 46 0 0.0 0.0 0.00 0.15 0.00 90 1011.3
20260508110047 46 0 0.0 0.0 0.00 0.15 0.00 90 1011.3
20260508105525 46 0 0.0 0.0 0.00 0.15 0.00 90 1011.5
20260508105025 46 0 0.0 0.0 0.00 0.15 0.00 90 1011.3
20260508104539 46 0 0.0 0.0 0.00 0.15 0.00 90 1011.4
20260508104025 47 0 0.0 0.0 0.00 0.15 0.00 90 1011.5
20260508103526 47 0 0.0 0.0 0.00 0.15 0.00 90 1011.5
20260508103040 47 0 0.0 0.0 0.00 0.15 0.00 90 1011.6
20260508102522 47 0 0.0 0.0 0.00 0.15 0.00 90 1011.6
20260508102024 47 0 0.0 0.0 0.00 0.15 0.00 90 1011.6
20260508101538 47 0 0.0 0.0 0.00 0.15 0.00 90 1011.5
20260508101028 47 0 0.0 0.0 0.00 0.15 0.00 90 1011.6
20260508100525 47 0 0.0 0.0 0.00 0.15 0.00 89 1011.6
20260508100041 48 0 0.0 0.0 0.00 0.15 0.00 89 1011.6
20260508095615 48 0 0.0 0.0 0.00 0.15 0.00 89 1011.6
20260508095024 48 0 0.0 0.0 0.00 0.15 0.00 89 1011.7
20260508094547 48 0 0.0 0.0 0.00 0.15 0.00 89 1011.8
20260508094028 48 0 0.0 0.0 0.00 0.15 0.00 89 1011.8
20260508093525 48 0 0.0 0.0 0.00 0.15 0.00 89 1011.7
20260508093039 48 0 0.0 0.0 0.00 0.15 0.00 89 1011.9
20260508092525 48 0 0.0 0.0 0.00 0.15 0.00 89 1012.0
20260508092024 48 0 0.0 0.0 0.00 0.15 0.00 89 1012.1
20260508091539 48 0 0.0 0.0 0.00 0.15 0.00 88 1012.1
20260508091026 48 0 0.0 0.0 0.00 0.15 0.00 88 1012.0
20260508090525 48 0 0.0 0.0 0.00 0.15 0.00 88 1011.9
20260508090040 48 0 0.0 0.0 0.00 0.15 0.00 87 1011.9
20260508085526 48 0 0.0 0.0 0.00 0.15 0.00 87 1011.9
20260508085026 48 0 0.0 0.0 0.00 0.15 0.00 87 1011.9
20260508084538 48 0 0.0 0.0 0.00 0.15 0.00 86 1012.0
20260508084028 48 0 0.0 0.0 0.00 0.15 0.00 86 1012.0
20260508083524 48 0 0.0 0.0 0.00 0.15 0.00 85 1012.1
20260508083122 49 0 0.0 0.0 0.00 0.15 0.00 85 1012.1
20260508082524 49 0 0.0 0.0 0.00 0.15 0.00 85 1012.2
20260508082025 49 0 0.0 0.0 0.00 0.15 0.00 85 1012.1
20260508081548 49 0 0.0 0.0 0.00 0.15 0.00 85 1012.1
20260508081025 49 0 0.0 0.0 0.00 0.15 0.00 85 1012.2
20260508080525 49 0 0.0 0.0 0.00 0.15 0.00 85 1012.4
20260508080046 49 0 0.0 0.0 0.00 0.15 0.00 85 1012.4
20260508075525 49 0 0.0 0.0 0.00 0.15 0.00 86 1012.3
20260508075024 49 0 0.0 0.0 0.00 0.15 0.00 86 1012.3
20260508074539 49 0 0.0 0.0 0.00 0.15 0.00 87 1012.3
20260508074025 48 0 0.0 0.0 0.00 0.15 0.00 88 1012.4
20260508073526 48 0 0.0 0.0 0.00 0.15 0.00 89 1012.3
20260508073039 47 0 0.0 0.0 0.00 0.15 0.00 89 1012.4
20260508072526 47 0 0.0 0.0 0.00 0.15 0.00 89 1012.4
20260508072023 47 0 0.0 0.0 0.00 0.15 0.00 88 1012.2
20260508071544 47 0 0.0 0.0 0.00 0.15 0.00 88 1011.8
20260508071023 48 0 0.0 0.0 0.00 0.15 0.00 88 1011.8
20260508070527 48 0 0.0 0.0 0.00 0.15 0.00 88 1011.9
20260508070044 48 0 0.0 0.0 0.00 0.15 0.00 88 1011.9
20260508065525 48 0 0.0 0.0 0.00 0.15 0.00 89 1011.9
20260508065025 48 0 0.0 0.0 0.00 0.15 0.00 89 1011.8
20260508064600 48 0 0.0 0.0 0.00 0.15 0.00 89 1011.8
20260508064025 48 0 0.0 0.0 0.00 0.15 0.00 89 1011.9
20260508063523 48 0 0.0 0.0 0.00 0.15 0.00 89 1012.0
20260508063038 48 0 0.0 0.0 0.00 0.15 0.00 89 1012.0
20260508062522 48 0 0.0 0.0 0.00 0.15 0.00 89 1012.1
20260508062023 47 0 0.0 0.0 0.00 0.15 0.00 89 1012.1
20260508061545 47 0 0.0 0.0 0.00 0.15 0.00 90 1012.1
20260508061029 47 0 0.0 0.0 0.00 0.15 0.00 90 1012.2
20260508060522 47 0 0.0 0.0 0.00 0.15 0.00 90 1012.2
20260508060045 47 0 0.0 0.0 0.00 0.15 0.00 90 1012.2
20260508055523 47 0 0.0 0.0 0.00 0.15 0.00 90 1012.3
20260508055023 47 0 0.0 0.0 0.00 0.15 0.00 90 1012.4
20260508054541 47 0 0.0 0.0 0.00 0.15 0.00 90 1012.4
20260508054022 47 0 0.0 0.0 0.00 0.15 0.00 90 1012.5
20260508053522 47 0 0.0 0.0 0.00 0.15 0.00 90 1012.6
20260508053038 47 0 0.0 0.0 0.00 0.15 0.00 90 1012.4
20260508052525 47 0 0.0 0.0 0.00 0.15 0.00 90 1012.3
20260508052022 47 0 0.0 0.0 0.00 0.15 0.00 90 1012.4
20260508051539 47 0 0.0 0.0 0.00 0.15 0.00 90 1012.4
20260508051023 47 0 0.0 0.0 0.00 0.15 0.00 90 1012.4
20260508050523 47 0 0.0 0.0 0.00 0.15 0.00 90 1012.5
20260508050045 48 0 0.0 0.0 0.00 0.15 0.00 90 1012.5
20260508045522 48 0 0.0 0.0 0.00 0.15 0.15 90 1012.5
20260508045023 48 0 0.0 0.0 0.01 0.15 0.15 90 1012.6
20260508044538 48 0 0.0 0.0 0.03 0.15 0.15 89 1012.6
20260508044021 48 0 0.0 0.0 0.04 0.15 0.15 89 1012.8
20260508043526 48 0 0.0 0.0 0.04 0.15 0.15 88 1012.8
20260508043040 48 0 0.0 0.0 0.04 0.15 0.15 88 1013.0
20260508042525 48 0 0.0 0.0 0.04 0.15 0.15 88 1013.0
20260508042024 49 0 0.0 0.0 0.04 0.15 0.15 88 1013.1
20260508041540 49 0 0.0 0.0 0.04 0.15 0.15 88 1013.0
20260508041025 49 0 0.0 0.0 0.04 0.15 0.15 88 1013.1
20260508040525 49 0 0.0 0.0 0.04 0.15 0.15 88 1013.2
20260508040038 49 0 0.0 0.0 0.04 0.15 0.15 88 1013.2
20260508035524 49 0 0.0 0.0 0.04 0.15 0.15 88 1013.2
20260508035027 49 0 0.0 0.0 0.02 0.13 0.13 87 1013.3
20260508034538 49 0 0.0 0.0 0.01 0.12 0.12 86 1013.7
20260508034024 49 0 0.0 0.0 0.01 0.11 0.11 85 1013.2
20260508033524 49 0 0.0 0.0 0.04 0.11 0.11 84 1012.6
20260508033042 49 0 0.0 0.0 0.04 0.11 0.11 84 1012.5
20260508032524 49 0 0.0 0.0 0.04 0.11 0.11 83 1012.6
20260508032024 50 0 0.0 0.0 0.04 0.11 0.11 82 1012.7
20260508031541 50 0 0.0 0.0 0.04 0.11 0.11 81 1012.7
20260508031024 50 0 0.0 0.0 0.04 0.11 0.11 80 1012.8
20260508030525 51 0 0.0 0.0 0.04 0.11 0.11 80 1012.8
20260508030041 51 0 0.0 0.0 0.04 0.11 0.11 79 1012.8
20260508025524 52 0 0.0 0.0 0.04 0.11 0.11 78 1012.8
20260508025029 52 0 0.0 4.0 0.04 0.11 0.11 77 1013.0
20260508024551 52 0 0.0 4.0 0.04 0.11 0.11 77 1012.9
20260508024025 52 0 0.0 4.0 0.03 0.10 0.10 78 1012.9
20260508023525 51 0 0.0 0.0 0.00 0.07 0.07 77 1013.5
20260508023038 51 0 0.0 0.0 0.00 0.07 0.07 77 1012.7
20260508022524 51 0 0.0 0.0 0.00 0.07 0.07 78 1012.5
20260508022024 51 0 0.0 1.0 0.00 0.07 0.07 78 1012.6
20260508021535 51 0 0.0 1.0 0.00 0.07 0.07 78 1012.6
20260508021027 51 0 0.0 0.0 0.00 0.07 0.07 78 1012.6
20260508020524 51 0 0.0 0.0 0.00 0.07 0.07 78 1012.5